Flag for Canada Weather past 2 weeks in Alert, Nunavut, Canada

Now
-2 °F

Overcast.


Feels Like: -13 °F
Forecast: -7 / 2 °F
Wind: 5 mph from West

Location: Alert Airport

Current Time: Apr 21, 2015 at 5:55:08 PM

Latest Report: Apr 21, 2015 at 4:00 PM


Visibility: 15 mi

Pressure: 30.14 "Hg

Humidity: 77%

Dew point: -8 °F

Location of AlertLocation

Historic Weather in Alert — Graph

°F

Alert temperature yesterday

Maximum temperature yesterday: 1 °F (at 3:00 AM)
Minimum temperature yesterday: -4 °F (at 5:00 PM)
Average temperature yesterday: -2 °F

Past Weeks' High & Low Weather Summary

 TemperatureHumidityPressure
High3 °F (Apr 21, 11:00 AM)85% (Apr 20, 3:00 AM)30.14 "Hg (Apr 20, 3:00 AM)
Low-35 °F (Apr 11, 4:00 AM)52% (Apr 10, 6:00 AM)29.04 "Hg (Apr 15, 8:00 PM)
Average-12 °F70%29.62 "Hg
* Reported Apr 7 8:00 AM — Apr 21 4:00 PM, Alert, Weather by CustomWeather, © 2015

Note: Actual official high and low records may vary slightly from our data, if they occured in-between our weather recording intervals... More about our weather records

Advertising

Alert weather history for previous 24 hours

 ConditionsComfort  
Time TempWeatherWind HumidityBarometerVisibility
4:00 PM
Tue, Apr 21
-2 °FOvercast.5 mph77%30.14 "Hg15 mi
3:00 PM-2 °FPartly sunny.3 mph77%30.12 "Hg15 mi
2:00 PM-2 °FPartly sunny.6 mph77%30.11 "Hg15 mi
1:00 PM-2 °FPartly sunny.7 mph77%30.09 "Hg15 mi
12:00 PM-4 °FPartly sunny.8 mph84%30.07 "Hg15 mi
11:00 AM3 °FPartly sunny.23 mph72%30.03 "Hg12 mi
10:00 AM1 °FPartly sunny.22 mph78%30.03 "Hg15 mi
9:00 AM1 °FPartly sunny.26 mph78%30.01 "Hg15 mi
8:00 AM0 °FPartly sunny.16 mph71%30.02 "Hg15 mi
7:00 AM-4 °FPartly sunny.3 mph71%30.02 "Hg15 mi
6:00 AM-4 °FScattered clouds.3 mph77%30.02 "Hg15 mi
5:00 AM-4 °FPassing clouds.7 mph71%30.01 "Hg15 mi
4:00 AM-4 °FPassing clouds.8 mph71%30.00 "Hg15 mi
3:00 AM-2 °FLow level haze.18 mph71%29.97 "Hg15 mi
2:00 AM-2 °FPassing clouds.16 mph65%29.96 "Hg15 mi
1:00 AM-4 °FPassing clouds.15 mph71%29.96 "Hg15 mi
12:00 AM-4 °FPassing clouds.10 mph71%29.97 "Hg15 mi
11:00 PM
Mon, Apr 20
-4 °FScattered clouds.12 mph71%29.96 "Hg15 mi
10:00 PM-4 °FScattered clouds.13 mph71%29.96 "Hg15 mi
9:00 PM-4 °FScattered clouds.10 mph77%29.96 "Hg15 mi
8:00 PM-4 °FScattered clouds.9 mph77%29.96 "Hg15 mi
7:00 PM-4 °FPassing clouds.8 mph71%29.95 "Hg15 mi
6:00 PM-4 °FPassing clouds.7 mph71%29.94 "Hg15 mi
5:00 PM-4 °FPassing clouds.3 mph71%29.94 "Hg15 mi
Weather by CustomWeather, © 2015

See weather overviewHow to use our weather pages